EW8326 Weather Reports


time (UTC)temp
C
wind
direction
speed
KPH
gust
KPH
rain 1hr
cm
rain 24hr
cm
rain mn
cm
humidity
%
barometer
mb
20260507114601 13 239 6.4 9.7 0.00 0.00 0.00 84 1011.4
20260507113701 12 195 4.8 6.4 0.00 0.00 0.00 84 1011.3
20260507112801 12 259 6.4 12.9 0.00 0.00 0.00 84 1011.3
20260507111902 11 323 9.7 17.7 0.00 0.00 0.00 84 1011.6
20260507111001 11 323 8.0 12.9 0.00 0.00 0.00 84 1011.4
20260507104301 12 195 6.4 9.7 0.00 0.00 0.00 84 1011.4
20260507103402 12 202 4.8 6.4 0.00 0.00 0.00 84 1011.3
20260507102501 11 278 6.4 11.3 0.00 0.00 0.00 84 1011.4
20260507101602 11 281 6.4 9.7 0.00 0.00 0.00 84 1011.4
20260507100701 10 224 4.8 12.9 0.00 0.00 0.00 84 1011.3
20260507095801 10 245 4.8 11.3 0.00 0.00 0.00 84 1011.2
20260507094901 10 191 3.2 6.4 0.00 0.00 0.00 84 1011.0
20260507094001 10 333 6.4 11.3 0.00 0.00 0.00 84 1011.1
20260507093101 9 342 6.4 12.9 0.00 0.00 0.00 84 1011.1
20260507092203 9 2 6.4 8.0 0.00 0.00 0.00 84 1011.2
20260507091301 8 332 6.4 8.0 0.00 0.00 0.00 84 1011.1
20260507085501 8 344 8.0 12.9 0.00 0.00 0.00 84 1011.3
20260507084601 7 263 6.4 12.9 0.00 0.00 0.00 84 1011.3
20260507083701 7 320 8.0 14.5 0.00 0.00 0.00 84 1011.3
20260507081902 7 9 9.7 12.9 0.00 0.00 0.00 84 1011.1
20260507081001 7 196 4.8 9.7 0.00 0.00 0.00 84 1011.0
20260507075201 6 322 8.0 9.7 0.00 0.00 0.00 84 1010.9
20260507073401 5 333 6.4 9.7 0.00 0.00 0.00 84 1010.8
20260507072503 5 13 8.0 11.3 0.00 0.00 0.00 84 1010.7
20260507070702 5 325 8.0 14.5 0.00 0.00 0.00 84 1010.7
20260507065801 4 240 6.4 14.5 0.00 0.00 0.00 84 1010.6
20260507064901 4 228 4.8 9.7 0.00 0.00 0.00 84 1010.6
20260507063101 3 332 9.7 12.9 0.00 0.00 0.00 84 1010.5
20260507062201 3 326 8.0 11.3 0.00 0.00 0.00 84 1010.4
20260507060401 2 336 12.9 16.1 0.00 0.00 0.00 84 1010.3
20260507055503 2 342 12.9 17.7 0.00 0.00 0.00 84 1010.2
20260507054601 2 340 12.9 17.7 0.00 0.00 0.00 84 1010.2
20260507053701 2 350 12.9 17.7 0.00 0.00 0.00 84 1010.1
20260507052801 2 345 8.0 11.3 0.00 0.00 0.00 84 1009.9
20260507051901 1 350 6.4 9.7 0.00 0.00 0.00 84 1010.0
20260507051001 1 251 4.8 9.7 0.00 0.00 0.00 84 1009.9
20260507045201 0 238 4.8 9.7 0.00 0.00 0.00 84 1009.9
20260507044302 0 294 4.8 8.0 0.00 0.00 0.00 84 1009.9
20260507043401 0 356 4.8 6.4 0.00 0.00 0.00 84 1009.8
20260507042501 0 338 3.2 6.4 0.00 0.00 0.00 84 1009.9
20260507041601 0 188 3.2 4.8 0.00 0.00 0.00 84 1009.7
20260507040702 0 225 3.2 4.8 0.00 0.00 0.00 84 1009.8
20260507035801 0 208 3.2 4.8 0.00 0.00 0.00 84 1009.6
20260507034901 0 161 3.2 6.4 0.00 0.00 0.00 84 1009.4
20260507033101 0 179 4.8 9.7 0.00 0.00 0.00 84 1009.2
20260507032201 0 201 4.8 8.0 0.00 0.00 0.00 84 1009.4
20260507024601 0 185 3.2 8.0 0.00 0.00 0.00 84 1009.2
20260507023702 0 334 3.2 6.4 0.00 0.00 0.00 84 1009.1
20260507022801 0 200 3.2 4.8 0.00 0.00 0.00 84 1009.0
20260507021903 0 238 3.2 4.8 0.00 0.00 0.00 84 1009.1
20260507021001 0 218 3.2 4.8 0.00 0.00 0.00 84 1009.0
20260507015201 1 254 3.2 6.4 0.00 0.00 0.00 84 1009.0
20260507014303 1 239 3.2 3.2 0.00 0.00 0.00 84 1008.9
20260507013401 1 192 3.2 8.0 0.00 0.00 0.00 84 1009.2
20260507012501 1 330 6.4 11.3 0.00 0.00 0.00 84 1008.9
20260507011601 1 327 8.0 14.5 0.00 0.00 0.00 84 1008.9
20260507010701 1 151 3.2 3.2 0.00 0.00 0.00 84 1008.7
20260507005801 1 158 4.8 6.4 0.00 0.00 0.00 84 1008.8
20260507004903 0 166 3.2 6.4 0.00 0.00 0.00 84 1008.6
20260507004001 1 158 3.2 6.4 0.00 0.00 0.00 84 1008.6
20260507003101 1 58 4.8 8.0 0.00 0.00 0.00 84 1008.5
20260507002201 1 353 8.0 17.7 0.00 0.00 0.00 84 1008.5
20260507001301 1 334 6.4 12.9 0.00 0.00 0.00 84 1008.5
20260507000401 2 341 8.0 9.7 0.00 0.00 0.00 84 1008.6
20260506235501 2 341 8.0 11.3 0.00 0.00 0.00 84 1008.4
20260506234601 2 332 8.0 11.3 0.00 0.00 0.00 84 1008.5
20260506232801 2 308 6.4 9.7 0.00 0.00 0.00 84 1008.3
20260506231902 2 317 8.0 11.3 0.00 0.00 0.00 84 1008.4
20260506231001 2 343 8.0 11.3 0.00 0.00 0.00 84 1008.3
20260506225201 2 334 11.3 12.9 0.00 0.00 0.00 84 1008.1
20260506224301 2 341 9.7 12.9 0.00 0.00 0.00 84 1008.3
20260506223401 3 311 12.9 17.7 0.00 0.00 0.00 84 1008.1
20260506222501 3 353 12.9 17.7 0.00 0.00 0.00 84 1008.2
20260506221601 3 1 14.5 24.1 0.00 0.00 0.00 84 1008.1
20260506220701 3 359 12.9 14.5 0.00 0.00 0.00 84 1007.9
20260506215801 3 329 8.0 14.5 0.00 0.00 0.00 84 1007.9
20260506214903 3 348 6.4 11.3 0.00 0.00 0.00 84 1008.0
20260506214001 3 328 8.0 16.1 0.00 0.00 0.00 84 1008.1
20260506212201 3 338 12.9 17.7 0.00 0.00 0.00 84 1007.9
20260506211301 3 330 11.3 20.9 0.00 0.00 0.00 84 1007.8
20260506210401 3 309 9.7 17.7 0.00 0.00 0.00 84 1007.7
20260506204601 4 335 4.8 6.4 0.00 0.00 0.00 84 1007.6
20260506203701 4 337 4.8 6.4 0.00 0.00 0.00 84 1007.4
20260506202802 5 344 6.4 12.9 0.00 0.00 0.00 84 1007.5
20260506201901 5 320 9.7 16.1 0.00 0.00 0.00 84 1007.5
20260506201002 5 357 6.4 16.1 0.00 0.00 0.00 84 1007.5
20260506200101 5 290 4.8 8.0 0.00 0.00 0.00 84 1007.5
20260506195201 5 332 6.4 8.0 0.00 0.00 0.00 84 1007.3
20260506194301 6 336 9.7 12.9 0.00 0.00 0.00 84 1007.3
20260506193401 6 327 11.3 19.3 0.00 0.00 0.00 84 1007.2
20260506191603 7 273 8.0 11.3 0.00 0.00 0.00 84 1007.2
20260506190701 7 314 6.4 9.7 0.00 0.00 0.00 84 1007.0
20260506185803 7 325 6.4 11.3 0.00 0.00 0.00 84 1007.0
20260506184901 8 320 11.3 16.1 0.00 0.00 0.00 84 1006.8
20260506183101 9 295 4.8 6.4 0.00 0.00 0.00 84 1006.6
20260506182201 9 309 6.4 17.7 0.00 0.00 0.00 84 1006.5
20260506181301 10 311 9.7 17.7 0.00 0.00 0.00 84 1006.6
20260506180401 10 280 4.8 14.5 0.00 0.00 0.00 84 1006.5
20260506174601 11 267 8.0 14.5 0.00 0.00 0.00 84 1006.3
20260506173701 12 266 4.8 8.0 0.00 0.00 0.00 84 1006.3
20260506172802 12 228 8.0 11.3 0.00 0.00 0.00 84 1006.0
20260506171901 12 237 6.4 9.7 0.00 0.00 0.00 84 1006.1
20260506165201 12 239 8.0 11.3 0.00 0.00 0.00 84 1006.0
20260506164301 13 228 6.4 11.3 0.00 0.00 0.00 84 1006.1
20260506163401 12 265 4.8 8.0 0.00 0.00 0.00 84 1005.8
20260506162502 12 240 8.0 12.9 0.00 0.00 0.00 84 1005.9
20260506161601 12 231 8.0 9.7 0.00 0.00 0.00 84 1005.8
20260506160701 12 175 3.2 6.4 0.00 0.00 0.00 84 1005.7
20260506155801 12 236 9.7 12.9 0.00 0.00 0.00 84 1005.6
20260506154901 12 222 11.3 12.9 0.00 0.00 0.00 84 1005.8
20260506154001 12 215 6.4 11.3 0.00 0.00 0.00 84 1005.7
20260506153101 12 300 6.4 11.3 0.00 0.00 0.00 84 1005.5
20260506151301 12 202 6.4 8.0 0.00 0.00 0.00 84 1005.9
20260506150401 12 210 8.0 12.9 0.00 0.00 0.00 84 1005.9
20260506145501 12 270 11.3 14.5 0.00 0.00 0.00 84 1005.6
20260506143703 12 295 9.7 16.1 0.00 0.00 0.00 84 1005.7
20260506142801 13 293 9.7 12.9 0.00 0.00 0.00 84 1005.7
20260506141901 13 256 4.8 11.3 0.00 0.00 0.00 84 1005.7
20260506141001 14 240 11.3 12.9 0.00 0.00 0.00 84 1005.7
20260506135201 13 230 8.0 12.9 0.00 0.00 0.00 84 1006.2
20260506134301 13 253 8.0 12.9 0.00 0.00 0.00 84 1006.0
20260506132501 13 246 11.3 17.7 0.00 0.00 0.00 84 1005.8
20260506131603 13 251 11.3 17.7 0.00 0.00 0.00 84 1005.9
20260506130701 13 215 6.4 16.1 0.00 0.00 0.00 84 1006.0
20260506125802 13 281 9.7 12.9 0.00 0.00 0.00 84 1006.0
20260506124901 13 257 6.4 12.9 0.00 0.00 0.00 84 1006.2
20260506124001 12 279 8.0 9.7 0.00 0.00 0.00 84 1006.1
20260506122202 12 217 6.4 12.9 0.00 0.00 0.00 84 1006.1
20260506121301 12 241 8.0 16.1 0.00 0.00 0.00 84 1006.4
20260506120401 11 274 4.8 9.7 0.00 0.00 0.00 84 1006.4
20260506115501 11 350 9.7 17.7 0.00 0.00 0.00 84 1006.3